Home   Weather   Perm   Past weeks
Flag for Russia

Past Weather in Perm, Russia — Yesterday and Last 2 Weeks

Now
21 °F

Low level haze.


Feels Like: 7 °F
Forecast: 29 / 25 °F
Wind: 17 mph from South

Location: Perm'/Bolshoe Savino

Current Time: Jan 18, 2019 at 12:40:22 pm

Latest Report: Jan 18, 2019 at 12:00 pm


Visibility: N/A

Pressure: 29.59 "Hg

Humidity: 74%

Dew Point: 14 °F

Location of PermLocation

Past Weather in Perm — Graph

°F

Perm Temperature Yesterday

Maximum temperature yesterday: 32 °F (at 3:30 am)
Minimum temperature yesterday: 21 °F (at 9:30 pm)
Average temperature yesterday: 26 °F

High & Low Weather Summary for the Past Weeks

 TemperatureHumidityPressure
High32 °F (Jan 13, 8:00 am)100% (Jan 13, 6:30 am)30.33 "Hg (Jan 13, 6:30 am)
Low-2 °F (Jan 7, 5:00 pm)60% (Jan 17, 3:30 am)29.27 "Hg (Jan 13, 7:30 am)
Average16 °F83%29.85 "Hg
* Reported Jan 3 11:00 am — Jan 18 11:00 am, Perm. Weather by CustomWeather, © 2019

Note: Actual official high and low records may vary slightly from our data, if they occured in-between our weather recording intervals... More about our weather records

Advertising

Perm Weather History for the Previous 24 Hours

Scroll right to see more
 ConditionsComfort  
Time TempWeatherWind HumidityBarometerVisibility
11:00 am
Fri, Jan 18
19 °FLow level haze.15 mph79%29.65 "HgN/A
10:30 am19 °FLow level haze.20 mph79%29.65 "HgN/A
10:00 am19 °FLow level haze.17 mph79%29.65 "HgN/A
9:30 am19 °FLow level haze.17 mph79%29.65 "HgN/A
9:00 am19 °FPassing clouds.17 mph79%29.68 "HgN/A
8:30 am19 °FPassing clouds.22 mph79%29.68 "HgN/A
8:00 am19 °FPassing clouds.17 mph79%29.68 "HgN/A
7:30 am19 °FLight snow. Passing clouds.17 mph73%29.71 "HgN/A
7:00 am19 °FLight snow. Passing clouds.17 mph73%29.71 "HgN/A
6:30 am18 °FLight snow. Overcast.17 mph79%29.71 "HgN/A
6:00 am19 °FLight snow. Overcast.20 mph73%29.74 "HgN/A
5:30 am19 °FLight snow. Overcast.15 mph73%29.74 "HgN/A
5:00 am19 °FLight snow. Overcast.15 mph79%29.74 "HgN/A
4:30 am18 °FLight snow. Overcast.13 mph86%29.74 "Hg6 mi
4:00 am18 °FLight snow. Overcast.10 mph79%29.77 "HgN/A
3:30 am18 °FLight snow. Overcast.13 mph79%29.77 "HgN/A
3:00 am18 °FLight snow. Overcast.22 mph86%29.77 "HgN/A
2:30 am18 °FLight snow. Overcast.22 mph86%29.74 "HgN/A
2:00 am18 °FLight snow. Overcast.20 mph86%29.74 "HgN/A
1:00 am16 °FPassing clouds.8 mph79%29.74 "HgN/A
12:00 am21 °FLight snow. Overcast.13 mph74%29.74 "HgN/A
11:30 pm
Thu, Jan 17
21 °FLight snow. Overcast.17 mph74%29.74 "HgN/A
11:00 pm21 °FLight snow. Overcast.17 mph80%29.71 "HgN/A
10:30 pm21 °FPassing clouds.10 mph74%29.71 "HgN/A
10:00 pm21 °FLight snow. Passing clouds.13 mph80%29.71 "HgN/A
9:30 pm21 °FLight snow. Passing clouds.10 mph74%29.71 "HgN/A
9:00 pm23 °FLight snow. Passing clouds.13 mph68%29.68 "HgN/A
8:30 pm23 °FLight snow. Passing clouds.15 mph74%29.68 "HgN/A
8:00 pm25 °FOvercast.17 mph69%29.65 "HgN/A
7:30 pm25 °FPassing clouds.13 mph74%29.65 "HgN/A
7:00 pm23 °FLight snow. Passing clouds.8 mph86%29.65 "HgN/A
6:30 pm23 °FLight snow. Passing clouds.13 mph93%29.62 "HgN/A
6:00 pm25 °FLight snow. Partly sunny.15 mph86%29.62 "HgN/A
5:30 pm23 °FLight snow. Partly sunny.15 mph86%29.62 "HgN/A
5:00 pm25 °FLight snow. Partly sunny.15 mph86%29.59 "Hg4 mi
4:30 pm23 °FLight snow. Partly sunny.17 mph93%29.59 "Hg4 mi
4:00 pm25 °FLight snow. Partly sunny.17 mph80%29.59 "Hg4 mi
3:30 pm25 °FLight snow. Partly sunny.17 mph80%29.56 "Hg2 mi
3:00 pm23 °FLight snow. Partly sunny.15 mph86%29.56 "Hg3 mi
2:30 pm25 °FLight snow. Partly sunny.15 mph80%29.56 "Hg6 mi
2:00 pm25 °FLight snow. Partly sunny.20 mph80%29.56 "HgN/A
1:30 pm25 °FLight snow. Partly sunny.15 mph80%29.56 "HgN/A
1:00 pm25 °FLight snow. Partly sunny.17 mph80%29.56 "Hg6 mi
12:30 pm25 °FLight snow. Partly sunny.15 mph86%29.56 "Hg5 mi
12:00 pm25 °FLight snow. Partly sunny.13 mph86%29.56 "Hg1 mi
Weather by CustomWeather, © 2019

See weather overview